Location: Bittelbronn
(48.4454°N, 8.5870°E)
Time: 12:11:00
(UTC+00:00)

SJ 16-02 - Pass Details

Date: 20 April 2025
Orbit: 587 x 597 km, 75.0° (Epoch: 15 May)

Event Time Altitude Azimuth Distance (km) Brightness Sun altitude
Rises 21:32:46 0° 320° (NW) 2,848 6.1 -24.8°
Reaches altitude 10° 21:36:14 10° 291° (WNW) 1,940 4.5 -25.1°
Maximum altitude 21:38:00 12° 266° (W) 1,787 4.0 -25.3°
Enters shadow 21:39:36 10° 244° (WSW) 1,911 3.9 -25.4°
